{"data":{"norad_id":63416,"intl_designator":"2025-065T","name":"STARLINK-33649","alt_names":[],"object_type":"PAYLOAD","status":"ACTIVE","operator":null,"country":"US","launch_date":"2025-03-31","launch_site_code":"AFETR","launch_vehicle":null,"mission":null,"orbit_class":"UNKNOWN","rcs_meters":null,"size_class":null,"mass_kg":null,"dimensions":null,"purposes":["comms"],"wikipedia_slug":null,"has_3d_model":false,"image_url":null,"decayed_at":null,"tle_current":{"epoch":"2026-05-25T00:08:40.737120Z","epoch_age_seconds":74867,"freshness":"FRESH","line1":"1 63416U 25065T   26145.00602705  .00017126  00000+0  63015-3 0  9990","line2":"2 63416  43.0031  35.8406 0001081 267.9834  92.0894 15.27593888 64512","mean_motion":15.27593888,"eccentricity":0.0001081,"inclination_deg":43.0031,"raan_deg":35.8406,"arg_perigee_deg":267.9834,"mean_anomaly_deg":92.0894,"bstar":0.00063015,"rev_number":6451,"period_min":94.265891694901,"perigee_km":482.26582096493,"apogee_km":483.74920040814,"semimajor_km":6861.1445106865,"source":"CELESTRAK","updated_at":"2026-05-25T13:38:19.972141Z"}}}